ICE563 LIRF-BIKF

Flight info

Callsign ICE563
Flight time 4h 34m
Altitude 36000
Route SOVAN DCT AMTEL DCT NUKNI DCT BIKTU DCT OGAPU DCT GOXIN DCT LUMAV DCT KOPER DCT MOBDO DCT BRENO DCT KONIN DCT KEMES DCT BAMKI DCT NOMKA DCT DOROR DCT PIXEG DCT GUNPA/M076F360 DCT 63N010W DCT ING DCT NASBU NASBU5N
Aircraft A21N/M-SDE2E3FGHIRWXY/LB1

Departure

Time 2026-05-07 00:03
Airport Rome–Fiumicino Leonardo da Vinci International Airport (LIRF)

Arrival

Time 2026-05-07 04:37
Airport Keflavik International Airport (BIKF)
Time Latitude Longitude Altitude Speed Heading
2026-05-06 23:44 41.79708 12.25834 21 ft 0 kts 115°
2026-05-06 23:50 41.79716 12.25809 19 ft 4 kts 97°
2026-05-06 23:50 41.79696 12.25756 22 ft 2 kts 25°
2026-05-06 23:50 41.79696 12.25755 22 ft 2 kts 25°
2026-05-06 23:58 41.79706 12.25762 21 ft 4 kts 25°
2026-05-06 23:58 41.79743 12.25785 19 ft 8 kts 25°
2026-05-06 23:58 41.79805 12.25824 19 ft 11 kts 25°
2026-05-06 23:59 41.79858 12.25825 19 ft 8 kts 350°
2026-05-06 23:59 41.79949 12.25870 21 ft 20 kts 25°
2026-05-06 23:59 41.80081 12.25952 21 ft 21 kts 25°
2026-05-06 23:59 41.80216 12.26036 19 ft 22 kts 25°
2026-05-07 00:00 41.80358 12.26123 21 ft 23 kts 25°
2026-05-07 00:00 41.80477 12.26177 21 ft 14 kts 359°
2026-05-07 00:00 41.80538 12.26273 21 ft 15 kts 70°
2026-05-07 00:00 41.80563 12.26365 22 ft 16 kts 70°
2026-05-07 00:01 41.80622 12.26579 21 ft 21 kts 69°
2026-05-07 00:01 41.80657 12.26704 20 ft 23 kts 70°
2026-05-07 00:01 41.80714 12.26909 19 ft 24 kts 70°
2026-05-07 00:01 41.80760 12.27076 19 ft 18 kts 70°
2026-05-07 00:02 41.80845 12.27126 18 ft 16 kts 340°
2026-05-07 00:02 41.80954 12.27073 20 ft 11 kts 339°
2026-05-07 00:02 41.80983 12.27030 18 ft 7 kts 261°
2026-05-07 00:02 41.80963 12.26949 18 ft 20 kts 249°
2026-05-07 00:03 41.80830 12.26464 24 ft 91 kts 249°
2026-05-07 00:03 41.80529 12.25373 24 ft 158 kts 249°
2026-05-07 00:03 41.80107 12.23802 214 ft 186 kts 252°
2026-05-07 00:03 41.79718 12.22200 1072 ft 176 kts 248°
2026-05-07 00:04 41.79331 12.20605 1674 ft 188 kts 250°
2026-05-07 00:04 41.79369 12.18797 2120 ft 208 kts 287°
2026-05-07 00:04 41.80217 12.17135 2655 ft 221 kts 307°
2026-05-07 00:04 41.81203 12.15538 3416 ft 223 kts 306°
2026-05-07 00:05 41.82171 12.13933 4169 ft 224 kts 306°
2026-05-07 00:05 41.83143 12.12305 4928 ft 223 kts 306°
2026-05-07 00:05 41.84155 12.10721 5655 ft 225 kts 316°
2026-05-07 00:05 41.85570 12.09697 6122 ft 245 kts 340°
2026-05-07 00:06 41.87287 12.09081 6490 ft 264 kts 343°
2026-05-07 00:06 41.89120 12.08460 7002 ft 277 kts 343°
2026-05-07 00:06 41.91004 12.07799 7684 ft 282 kts 342°
2026-05-07 00:06 41.92916 12.07112 8403 ft 286 kts 342°
2026-05-07 00:07 41.94854 12.06407 9129 ft 290 kts 343°
2026-05-07 00:07 41.96862 12.05942 9849 ft 296 kts 353°
2026-05-07 00:07 41.98948 12.05740 10353 ft 308 kts 354°
2026-05-07 00:07 42.01148 12.05551 10650 ft 326 kts 354°
2026-05-07 00:08 42.03473 12.05343 10954 ft 342 kts 354°
2026-05-07 00:08 42.05886 12.05115 11461 ft 351 kts 354°
2026-05-07 00:08 42.08303 12.04884 12108 ft 355 kts 354°
2026-05-07 00:08 42.10780 12.04645 12768 ft 360 kts 353°
2026-05-07 00:09 42.13289 12.04402 13435 ft 364 kts 353°
2026-05-07 00:09 42.15832 12.04155 14081 ft 367 kts 353°
2026-05-07 00:09 42.18380 12.03873 14749 ft 368 kts 350°
2026-05-07 00:09 42.20914 12.03351 15380 ft 370 kts 348°
2026-05-07 00:10 42.23464 12.02766 15995 ft 373 kts 347°
2026-05-07 00:10 42.26038 12.02178 16610 ft 377 kts 347°
2026-05-07 00:10 42.28642 12.01589 17196 ft 381 kts 347°
2026-05-07 00:10 42.31266 12.00998 17776 ft 384 kts 347°
2026-05-07 00:11 42.33918 12.00399 18328 ft 388 kts 347°
2026-05-07 00:11 42.36581 11.99799 18789 ft 391 kts 347°
2026-05-07 00:11 42.39280 11.99190 19254 ft 394 kts 347°
2026-05-07 00:11 42.41998 11.98579 19655 ft 398 kts 347°
2026-05-07 00:12 42.44715 11.97963 20064 ft 401 kts 347°
2026-05-07 00:12 42.47475 11.97333 20518 ft 403 kts 347°
2026-05-07 00:12 42.50252 11.96709 20929 ft 406 kts 347°
2026-05-07 00:12 42.53051 11.96081 21312 ft 408 kts 346°
2026-05-07 00:13 42.55857 11.95447 21683 ft 410 kts 346°
2026-05-07 00:13 42.58679 11.94809 22017 ft 412 kts 346°
2026-05-07 00:13 42.61513 11.94166 22338 ft 414 kts 346°
2026-05-07 00:13 42.64367 11.93518 22623 ft 416 kts 347°
2026-05-07 00:14 42.67232 11.92868 22902 ft 418 kts 346°
2026-05-07 00:14 42.70107 11.92214 23159 ft 420 kts 346°
2026-05-07 00:14 42.72992 11.91557 23381 ft 421 kts 346°
2026-05-07 00:14 42.75885 11.90898 23580 ft 422 kts 346°
2026-05-07 00:15 42.78788 11.90236 23730 ft 423 kts 346°
2026-05-07 00:15 42.81693 11.89550 23863 ft 423 kts 344°
2026-05-07 00:15 42.84501 11.88389 23886 ft 421 kts 333°
2026-05-07 00:15 42.87121 11.86642 23936 ft 419 kts 327°
2026-05-07 00:16 42.89639 11.84747 24009 ft 419 kts 326°
2026-05-07 00:16 42.92193 11.82812 24085 ft 420 kts 326°
2026-05-07 00:16 42.94755 11.80899 24135 ft 420 kts 327°
2026-05-07 00:16 42.97333 11.78994 24165 ft 420 kts 327°
2026-05-07 00:17 42.99908 11.77103 24181 ft 421 kts 327°
2026-05-07 00:17 43.02493 11.75202 24181 ft 421 kts 327°
2026-05-07 00:17 43.05078 11.73301 24149 ft 422 kts 327°
2026-05-07 00:17 43.07671 11.71396 24089 ft 423 kts 327°
2026-05-07 00:18 43.10261 11.69501 24038 ft 423 kts 327°
2026-05-07 00:18 43.12857 11.67604 24004 ft 422 kts 327°
2026-05-07 00:18 43.15448 11.65700 23945 ft 421 kts 327°
2026-05-07 00:18 43.18030 11.63802 23886 ft 420 kts 327°
2026-05-07 00:19 43.20651 11.62038 23824 ft 422 kts 333°
2026-05-07 00:19 43.23467 11.60854 23763 ft 425 kts 345°
2026-05-07 00:19 43.26407 11.60374 23727 ft 426 kts 352°
2026-05-07 00:19 43.29362 11.60139 23685 ft 423 kts 353°
2026-05-07 00:20 43.32288 11.59924 23636 ft 420 kts 353°
2026-05-07 00:20 43.35197 11.59693 23588 ft 417 kts 353°
2026-05-07 00:20 43.38077 11.59450 23534 ft 413 kts 352°
2026-05-07 00:20 43.40897 11.59205 23478 ft 409 kts 352°
2026-05-07 00:21 43.43732 11.58955 23432 ft 406 kts 352°
2026-05-07 00:21 43.46536 11.58707 23385 ft 402 kts 352°
2026-05-07 00:21 43.49322 11.58461 23331 ft 398 kts 352°
2026-05-07 00:21 43.52074 11.58218 23277 ft 394 kts 352°
2026-05-07 00:22 43.54797 11.57977 23226 ft 391 kts 352°
2026-05-07 00:22 43.57499 11.57737 23180 ft 387 kts 352°
2026-05-07 00:22 43.60175 11.57499 23133 ft 384 kts 352°
2026-05-07 00:22 43.62833 11.57262 23089 ft 381 kts 352°
2026-05-07 00:23 43.65473 11.57026 23065 ft 379 kts 352°
2026-05-07 00:23 43.68096 11.56793 23018 ft 376 kts 352°
2026-05-07 00:23 43.70696 11.56562 22976 ft 373 kts 352°
2026-05-07 00:23 43.73284 11.56331 22923 ft 370 kts 352°
2026-05-07 00:24 43.75851 11.56102 22883 ft 368 kts 352°
2026-05-07 00:24 43.78391 11.55876 22828 ft 365 kts 351°
2026-05-07 00:24 43.80883 11.55652 22775 ft 362 kts 352°
2026-05-07 00:24 43.83385 11.55428 22723 ft 359 kts 352°
2026-05-07 00:25 43.85870 11.55207 22684 ft 355 kts 351°
2026-05-07 00:25 43.88321 11.54989 22631 ft 351 kts 351°
2026-05-07 00:25 43.90749 11.54773 22576 ft 347 kts 351°
2026-05-07 00:25 43.93149 11.54559 22524 ft 344 kts 351°
2026-05-07 00:26 43.95541 11.54343 22548 ft 349 kts 351°
2026-05-07 00:26 43.98007 11.54114 22680 ft 361 kts 351°
2026-05-07 00:26 44.00572 11.53960 22854 ft 376 kts 357°
2026-05-07 00:26 44.03236 11.54150 23056 ft 388 kts
2026-05-07 00:27 44.05968 11.54414 23234 ft 400 kts
2026-05-07 00:27 44.08784 11.54692 23418 ft 411 kts
2026-05-07 00:27 44.11670 11.54972 23586 ft 421 kts
2026-05-07 00:27 44.14630 11.55255 23739 ft 432 kts
2026-05-07 00:28 44.17663 11.55543 23891 ft 442 kts
2026-05-07 00:28 44.20764 11.55836 24116 ft 449 kts
2026-05-07 00:28 44.23898 11.56133 24484 ft 453 kts
2026-05-07 00:28 44.27047 11.56433 24857 ft 455 kts
2026-05-07 00:29 44.30218 11.56737 25240 ft 457 kts
2026-05-07 00:29 44.33360 11.57034 25610 ft 460 kts 360°
2026-05-07 00:30 44.43011 11.57949 26669 ft 467 kts 359°
2026-05-07 00:30 44.46261 11.58257 27007 ft 470 kts 359°
2026-05-07 00:30 44.49533 11.58568 27346 ft 472 kts 359°
2026-05-07 00:30 44.52824 11.58881 27679 ft 475 kts 359°
2026-05-07 00:31 44.56131 11.59196 28010 ft 477 kts 359°
2026-05-07 00:31 44.59446 11.59512 28343 ft 479 kts 359°
2026-05-07 00:31 44.62788 11.59833 28661 ft 482 kts 359°
2026-05-07 00:31 44.66139 11.60155 28968 ft 484 kts 359°
2026-05-07 00:32 44.69504 11.60478 29275 ft 486 kts 359°
2026-05-07 00:32 44.72888 11.60802 29572 ft 488 kts 359°
2026-05-07 00:32 44.76281 11.61127 29859 ft 490 kts 358°
2026-05-07 00:32 44.79696 11.61456 30134 ft 493 kts 358°
2026-05-07 00:33 44.83129 11.61778 30369 ft 495 kts 358°
2026-05-07 00:33 44.86571 11.62038 30601 ft 496 kts 357°
2026-05-07 00:33 44.90022 11.62275 30832 ft 498 kts 357°
2026-05-07 00:33 44.93490 11.62515 31058 ft 500 kts 358°
2026-05-07 00:34 44.96976 11.62766 31267 ft 502 kts 358°
2026-05-07 00:34 45.00461 11.63021 31477 ft 504 kts 358°
2026-05-07 00:34 45.03970 11.63280 31696 ft 505 kts 358°
2026-05-07 00:34 45.07480 11.63541 31957 ft 505 kts 358°
2026-05-07 00:35 45.10988 11.63801 32211 ft 505 kts 358°
2026-05-07 00:35 45.14447 11.64059 32447 ft 505 kts 358°
2026-05-07 00:35 45.17955 11.64460 32725 ft 506 kts
2026-05-07 00:35 45.21460 11.64920 32916 ft 507 kts
2026-05-07 00:36 45.24985 11.65387 33129 ft 508 kts
2026-05-07 00:36 45.28504 11.65854 33367 ft 508 kts
2026-05-07 00:36 45.32023 11.66320 33628 ft 508 kts
2026-05-07 00:36 45.35538 11.66784 33909 ft 507 kts
2026-05-07 00:37 45.39053 11.67247 34116 ft 506 kts
2026-05-07 00:37 45.42554 11.67709 34297 ft 505 kts
2026-05-07 00:37 45.46055 11.68171 34489 ft 504 kts
2026-05-07 00:37 45.49552 11.68635 34679 ft 503 kts
2026-05-07 00:38 45.53037 11.69097 34878 ft 502 kts
2026-05-07 00:38 45.56512 11.69558 35068 ft 501 kts
2026-05-07 00:38 45.59931 11.70012 35265 ft 500 kts
2026-05-07 00:38 45.63397 11.70472 35434 ft 499 kts
2026-05-07 00:39 45.66851 11.70933 35613 ft 498 kts
2026-05-07 00:39 45.70300 11.71395 35775 ft 497 kts
2026-05-07 00:39 45.73740 11.71856 35927 ft 497 kts
2026-05-07 00:39 45.77178 11.72317 35976 ft 496 kts
2026-05-07 00:40 45.84029 11.73234 35957 ft 494 kts
2026-05-07 00:40 45.90876 11.74153 35947 ft 494 kts
2026-05-07 00:41 45.97720 11.75074 35961 ft 494 kts
2026-05-07 00:41 46.04575 11.75999 35947 ft 494 kts
2026-05-07 00:42 46.11374 11.76919 35953 ft 494 kts
2026-05-07 00:42 46.18229 11.77850 35959 ft 494 kts
2026-05-07 00:43 46.25068 11.78782 35954 ft 493 kts
2026-05-07 00:43 46.31913 11.79714 35964 ft 494 kts
2026-05-07 00:44 46.38767 11.80572 35964 ft 491 kts 357°
2026-05-07 00:44 46.42144 11.80242 35953 ft 483 kts 344°
2026-05-07 00:44 46.45336 11.78932 35944 ft 472 kts 331°
2026-05-07 00:45 46.51075 11.74595 35966 ft 466 kts 324°
2026-05-07 00:45 46.56759 11.70056 35957 ft 467 kts 325°
2026-05-07 00:46 46.62478 11.65565 35944 ft 467 kts 325°
2026-05-07 00:46 46.68204 11.61097 35945 ft 467 kts 325°
2026-05-07 00:47 46.73923 11.56616 35939 ft 466 kts 325°
2026-05-07 00:47 46.79642 11.52124 35940 ft 467 kts 325°
2026-05-07 00:48 46.84400 11.48376 35940 ft 465 kts 325°
2026-05-07 00:48 46.90114 11.43873 35949 ft 466 kts 326°
2026-05-07 00:49 46.95879 11.39473 35933 ft 471 kts 332°
2026-05-07 00:49 46.99031 11.38017 35924 ft 479 kts 344°
2026-05-07 00:49 47.02364 11.37503 35938 ft 486 kts 355°
2026-05-07 00:50 47.09142 11.37501 35935 ft 487 kts 356°
2026-05-07 00:50 47.15870 11.37494 35903 ft 487 kts 356°
2026-05-07 00:51 47.22646 11.37428 35905 ft 487 kts 356°
2026-05-07 00:51 47.29412 11.37359 35912 ft 486 kts 356°
2026-05-07 00:52 47.36165 11.37293 35905 ft 485 kts 356°
2026-05-07 00:52 47.42912 11.37226 35913 ft 484 kts 356°
2026-05-07 00:53 47.49645 11.37160 35923 ft 484 kts 356°
2026-05-07 00:53 47.56389 11.37090 35934 ft 485 kts 356°
2026-05-07 00:54 47.63141 11.37024 35966 ft 485 kts 356°
2026-05-07 00:54 47.69875 11.36961 35940 ft 484 kts 357°
2026-05-07 00:55 47.76556 11.36893 35936 ft 483 kts 357°
2026-05-07 00:55 47.83296 11.36826 35933 ft 483 kts 357°
2026-05-07 00:56 47.90005 11.36451 35938 ft 483 kts 354°
2026-05-07 00:56 47.96728 11.35893 35934 ft 484 kts 354°
2026-05-07 00:57 48.03453 11.35335 35936 ft 484 kts 354°
2026-05-07 00:57 48.10191 11.34776 35938 ft 484 kts 354°
2026-05-07 00:58 48.16884 11.34220 35935 ft 484 kts 354°
2026-05-07 00:58 48.23610 11.33661 35932 ft 484 kts 354°
2026-05-07 00:59 48.33703 11.32817 35926 ft 484 kts 354°
2026-05-07 01:00 48.40428 11.32256 35916 ft 484 kts 354°
2026-05-07 01:00 48.47160 11.31692 35919 ft 484 kts 354°
2026-05-07 01:01 48.53889 11.31124 35949 ft 485 kts 354°
2026-05-07 01:01 48.60604 11.30558 35910 ft 486 kts 354°
2026-05-07 01:02 48.67358 11.29982 35910 ft 486 kts 354°
2026-05-07 01:02 48.74105 11.29414 35911 ft 486 kts 354°
2026-05-07 01:03 48.80857 11.28837 35910 ft 486 kts 354°
2026-05-07 01:03 48.87615 11.28260 35907 ft 486 kts 354°
2026-05-07 01:04 48.94374 11.27682 35905 ft 486 kts 354°
2026-05-07 01:04 49.01133 11.27100 35908 ft 487 kts 354°
2026-05-07 01:05 49.07859 11.26521 35901 ft 487 kts 354°
2026-05-07 01:05 49.14620 11.25935 35897 ft 487 kts 354°
2026-05-07 01:06 49.21384 11.25348 35900 ft 487 kts 354°
2026-05-07 01:06 49.28159 11.24764 35884 ft 488 kts 354°
2026-05-07 01:07 49.34932 11.24176 35881 ft 488 kts 354°
2026-05-07 01:07 49.41704 11.23584 35878 ft 488 kts 354°
2026-05-07 01:08 49.48480 11.22991 35892 ft 486 kts 354°
2026-05-07 01:08 49.55222 11.22363 35883 ft 484 kts 352°
2026-05-07 01:09 49.61916 11.21250 35872 ft 484 kts 351°
2026-05-07 01:09 49.68603 11.20094 35877 ft 483 kts 351°
2026-05-07 01:10 49.75285 11.18943 35875 ft 483 kts 351°
2026-05-07 01:10 49.81975 11.17793 35866 ft 483 kts 351°
2026-05-07 01:11 49.88603 11.16652 35864 ft 483 kts 351°
2026-05-07 01:11 49.95292 11.15493 35856 ft 482 kts 351°
2026-05-07 01:12 50.01960 11.14337 35857 ft 482 kts 351°
2026-05-07 01:12 50.08633 11.13180 35853 ft 482 kts 351°
2026-05-07 01:13 50.15302 11.12014 35846 ft 482 kts 351°
2026-05-07 01:13 50.21979 11.10841 35834 ft 482 kts 351°
2026-05-07 01:14 50.28614 11.09677 35858 ft 482 kts 352°
2026-05-07 01:14 50.35245 11.08511 35839 ft 479 kts 352°
2026-05-07 01:15 50.41873 11.07336 35838 ft 480 kts 352°
2026-05-07 01:15 50.48512 11.06161 35835 ft 480 kts 352°
2026-05-07 01:16 50.55148 11.04983 35833 ft 480 kts 352°
2026-05-07 01:16 50.61780 11.03802 35832 ft 480 kts 352°
2026-05-07 01:17 50.68414 11.02619 35828 ft 480 kts 352°
2026-05-07 01:17 50.74809 11.00019 35823 ft 474 kts 334°
2026-05-07 01:18 50.80827 10.95762 35819 ft 474 kts 333°
2026-05-07 01:18 50.86836 10.91489 35818 ft 474 kts 333°
2026-05-07 01:19 50.92863 10.87241 35833 ft 473 kts 333°
2026-05-07 01:19 50.98860 10.83022 35819 ft 470 kts 333°
2026-05-07 01:20 51.04832 10.78786 35821 ft 470 kts 333°
2026-05-07 01:20 51.10812 10.74556 35826 ft 470 kts 333°
2026-05-07 01:21 51.16775 10.70303 35830 ft 469 kts 333°
2026-05-07 01:21 51.22736 10.66035 35840 ft 469 kts 333°
2026-05-07 01:22 51.28690 10.61752 35840 ft 469 kts 333°
2026-05-07 01:22 51.34644 10.57467 35841 ft 469 kts 333°
2026-05-07 01:23 51.40574 10.53208 35851 ft 464 kts 333°
2026-05-07 01:23 51.46409 10.48800 35847 ft 462 kts 329°
2026-05-07 01:24 51.52047 10.43959 35852 ft 462 kts 329°
2026-05-07 01:24 51.57718 10.39073 35856 ft 462 kts 329°
2026-05-07 01:25 51.63383 10.34184 35842 ft 461 kts 329°
2026-05-07 01:25 51.69036 10.29278 35853 ft 461 kts 329°
2026-05-07 01:26 51.74685 10.24371 35861 ft 461 kts 329°
2026-05-07 01:26 51.80324 10.19465 35859 ft 460 kts 329°
2026-05-07 01:27 51.85911 10.14588 35872 ft 459 kts 329°
2026-05-07 01:27 51.91537 10.09661 35870 ft 458 kts 329°
2026-05-07 01:28 51.97137 10.04736 35879 ft 458 kts 329°
2026-05-07 01:28 52.02734 9.99804 35881 ft 458 kts 329°
2026-05-07 01:29 52.08338 9.94855 35884 ft 458 kts 329°
2026-05-07 01:29 52.13926 9.89892 35886 ft 457 kts 328°
2026-05-07 01:30 52.19470 9.84976 35905 ft 455 kts 329°
2026-05-07 01:30 52.25012 9.80047 35902 ft 453 kts 329°
2026-05-07 01:31 52.30580 9.75053 35905 ft 453 kts 329°
2026-05-07 01:31 52.36076 9.70143 35906 ft 453 kts 329°
2026-05-07 01:32 52.41612 9.65161 35908 ft 454 kts 328°
2026-05-07 01:32 52.47140 9.60182 35906 ft 454 kts 329°
2026-05-07 01:33 52.52666 9.55169 35901 ft 453 kts 328°
2026-05-07 01:33 52.58186 9.50154 35904 ft 454 kts 328°
2026-05-07 01:34 52.62790 9.45978 35904 ft 453 kts 328°
2026-05-07 01:34 52.68317 9.40947 35908 ft 453 kts 328°
2026-05-07 01:35 52.73827 9.35899 35912 ft 453 kts 328°
2026-05-07 01:35 52.80234 9.30025 35921 ft 453 kts 328°
2026-05-07 01:36 52.84848 9.25786 35924 ft 453 kts 328°
2026-05-07 01:36 52.90316 9.20730 35938 ft 453 kts 328°
2026-05-07 01:37 52.95806 9.15640 35932 ft 452 kts 328°
2026-05-07 01:37 53.01280 9.10561 35934 ft 449 kts 328°
2026-05-07 01:38 53.06735 9.05479 35934 ft 449 kts 328°
2026-05-07 01:38 53.12189 9.00389 35936 ft 449 kts 328°
2026-05-07 01:39 53.17650 8.95327 35936 ft 449 kts 328°
2026-05-07 01:39 53.23104 8.90221 35938 ft 449 kts 328°
2026-05-07 01:40 53.28516 8.85116 35939 ft 449 kts 328°
2026-05-07 01:40 53.33960 8.79984 35944 ft 449 kts 328°
2026-05-07 01:41 53.39396 8.74826 35951 ft 448 kts 328°
2026-05-07 01:41 53.44812 8.69662 35951 ft 447 kts 328°
2026-05-07 01:42 53.50202 8.64522 35956 ft 445 kts 328°
2026-05-07 01:42 53.55590 8.59374 35960 ft 445 kts 328°
2026-05-07 01:43 53.60946 8.54258 35962 ft 445 kts 328°
2026-05-07 01:43 53.66328 8.49092 35963 ft 445 kts 328°
2026-05-07 01:44 53.71705 8.43909 35967 ft 445 kts 327°
2026-05-07 01:44 53.77062 8.38705 35966 ft 444 kts 327°
2026-05-07 01:45 53.82414 8.33497 35970 ft 443 kts 327°
2026-05-07 01:45 53.87770 8.28317 35974 ft 442 kts 327°
2026-05-07 01:46 53.93114 8.23125 35974 ft 442 kts 327°
2026-05-07 01:46 53.98448 8.17908 35990 ft 442 kts 327°
2026-05-07 01:47 54.03747 8.12723 35986 ft 442 kts 327°
2026-05-07 01:47 54.09076 8.07471 35985 ft 442 kts 327°
2026-05-07 01:48 54.14391 8.02227 35991 ft 442 kts 327°
2026-05-07 01:48 54.19704 7.96961 35991 ft 442 kts 327°
2026-05-07 01:49 54.25026 7.91679 36009 ft 441 kts 327°
2026-05-07 01:49 54.30328 7.86397 35999 ft 441 kts 326°
2026-05-07 01:50 54.35630 7.81111 35996 ft 440 kts 326°
2026-05-07 01:50 54.40924 7.75806 36000 ft 441 kts 326°
2026-05-07 01:51 54.46213 7.70480 36000 ft 441 kts 326°
2026-05-07 01:51 54.51472 7.65188 36011 ft 441 kts 326°
2026-05-07 01:52 54.56753 7.59837 36005 ft 440 kts 326°
2026-05-07 01:52 54.62039 7.54488 36015 ft 440 kts 326°
2026-05-07 01:53 54.67304 7.49133 36007 ft 439 kts 326°
2026-05-07 01:53 54.72565 7.43764 36005 ft 439 kts 326°
2026-05-07 01:54 54.77823 7.38387 36010 ft 439 kts 326°
2026-05-07 01:54 54.83072 7.32989 36022 ft 438 kts 326°
2026-05-07 01:55 54.88306 7.27591 36021 ft 438 kts 326°
2026-05-07 01:55 54.93539 7.22186 36025 ft 437 kts 326°
2026-05-07 01:56 54.98772 7.16763 36016 ft 437 kts 326°
2026-05-07 01:56 55.04225 7.12013 36021 ft 439 kts 332°
2026-05-07 01:57 55.09753 7.07509 36037 ft 437 kts 332°
2026-05-07 01:57 55.15248 7.03000 36035 ft 436 kts 332°
2026-05-07 01:58 55.20750 6.98487 36044 ft 436 kts 332°
2026-05-07 01:58 55.26244 6.93949 36031 ft 436 kts 332°
2026-05-07 01:59 55.31698 6.89429 36033 ft 436 kts 332°
2026-05-07 01:59 55.37192 6.84844 36045 ft 436 kts 332°
2026-05-07 02:00 55.42665 6.80276 36041 ft 435 kts 331°
2026-05-07 02:00 55.48129 6.75670 36046 ft 435 kts 332°
2026-05-07 02:01 55.53597 6.71098 36049 ft 435 kts 332°
2026-05-07 02:01 55.59055 6.66505 36050 ft 433 kts 332°
2026-05-07 02:02 55.64479 6.61912 36056 ft 431 kts 332°
2026-05-07 02:02 55.69861 6.57349 36052 ft 431 kts 332°
2026-05-07 02:03 55.75269 6.52759 36053 ft 431 kts 332°
2026-05-07 02:03 55.80686 6.48147 36059 ft 431 kts 332°
2026-05-07 02:04 55.86092 6.43534 36059 ft 431 kts 332°
2026-05-07 02:04 55.91500 6.38905 36059 ft 431 kts 332°
2026-05-07 02:05 55.96898 6.34278 36062 ft 430 kts 332°
2026-05-07 02:05 56.02256 6.29661 36062 ft 430 kts 331°
2026-05-07 02:06 56.07644 6.25000 36063 ft 430 kts 332°
2026-05-07 02:06 56.12995 6.20354 36061 ft 426 kts 332°
2026-05-07 02:07 56.18329 6.15706 36071 ft 426 kts 331°
2026-05-07 02:07 56.26314 6.08712 36070 ft 425 kts 331°
2026-05-07 02:08 56.31630 6.04037 36066 ft 425 kts 331°
2026-05-07 02:08 56.36944 5.99357 36068 ft 425 kts 331°
2026-05-07 02:09 56.42260 5.94660 36071 ft 425 kts 331°
2026-05-07 02:09 56.47563 5.89963 36078 ft 424 kts 331°
2026-05-07 02:10 56.52862 5.85289 36072 ft 423 kts 331°
2026-05-07 02:10 56.58119 5.80638 36074 ft 423 kts 331°
2026-05-07 02:11 56.63382 5.75942 36076 ft 420 kts 331°
2026-05-07 02:11 56.68618 5.71251 36081 ft 419 kts 331°
2026-05-07 02:12 56.73845 5.66554 36086 ft 419 kts 331°
2026-05-07 02:12 56.79062 5.61823 36079 ft 418 kts 331°
2026-05-07 02:13 56.84275 5.57112 36074 ft 418 kts 330°
2026-05-07 02:13 56.89485 5.52380 36071 ft 418 kts 330°
2026-05-07 02:14 56.94690 5.47641 36073 ft 418 kts 331°
2026-05-07 02:14 56.99898 5.42899 36099 ft 418 kts 330°
2026-05-07 02:15 57.05105 5.38120 36082 ft 418 kts 330°
2026-05-07 02:15 57.10271 5.33359 36078 ft 417 kts 330°
2026-05-07 02:16 57.15462 5.28582 36075 ft 417 kts 330°
2026-05-07 02:16 57.20665 5.23776 36073 ft 417 kts 330°
2026-05-07 02:17 57.25853 5.18944 36083 ft 417 kts 330°
2026-05-07 02:17 57.31050 5.14110 36089 ft 417 kts 329°
2026-05-07 02:18 57.36197 5.09290 36084 ft 417 kts 330°
2026-05-07 02:18 57.41373 5.04430 36080 ft 417 kts 329°
2026-05-07 02:19 57.46548 4.99566 36083 ft 417 kts 329°
2026-05-07 02:19 57.51599 4.94336 36083 ft 414 kts 323°
2026-05-07 02:20 57.56378 4.88350 36110 ft 414 kts 323°
2026-05-07 02:20 57.61156 4.82334 36086 ft 414 kts 323°
2026-05-07 02:21 57.65117 4.77350 36087 ft 412 kts 323°
2026-05-07 02:21 57.69860 4.71364 36086 ft 412 kts 323°
2026-05-07 02:22 57.74605 4.65373 36083 ft 411 kts 323°
2026-05-07 02:22 57.79338 4.59353 36090 ft 411 kts 323°
2026-05-07 02:23 57.84068 4.53330 36088 ft 411 kts 323°
2026-05-07 02:23 57.88799 4.47287 36096 ft 411 kts 322°
2026-05-07 02:24 57.93493 4.41259 36088 ft 411 kts 322°
2026-05-07 02:24 57.98213 4.35185 36092 ft 411 kts 322°
2026-05-07 02:25 58.02929 4.29111 36093 ft 410 kts 322°
2026-05-07 02:25 58.07626 4.23032 36094 ft 408 kts 322°
2026-05-07 02:26 58.12294 4.16967 36093 ft 407 kts 322°
2026-05-07 02:26 58.16961 4.10863 36104 ft 407 kts 322°
2026-05-07 02:27 58.21623 4.04770 36094 ft 407 kts 322°
2026-05-07 02:27 58.26280 3.98668 36093 ft 406 kts 322°
2026-05-07 02:28 58.30925 3.92551 36093 ft 406 kts 322°
2026-05-07 02:28 58.35571 3.86415 36091 ft 406 kts 322°
2026-05-07 02:29 58.40211 3.80269 36091 ft 407 kts 321°
2026-05-07 02:29 58.44831 3.74119 36110 ft 407 kts 321°
2026-05-07 02:30 58.49466 3.67942 36094 ft 405 kts 321°
2026-05-07 02:30 58.54084 3.61761 36090 ft 404 kts 321°
2026-05-07 02:31 58.58693 3.55582 36090 ft 404 kts 321°
2026-05-07 02:31 58.63291 3.49379 36089 ft 404 kts 321°
2026-05-07 02:32 58.67888 3.43173 36085 ft 403 kts 321°
2026-05-07 02:32 58.72473 3.36940 36085 ft 403 kts 321°
2026-05-07 02:33 58.77056 3.30705 36085 ft 403 kts 321°
2026-05-07 02:33 58.81607 3.24483 36083 ft 403 kts 321°
2026-05-07 02:34 58.86185 3.18242 36083 ft 403 kts 321°
2026-05-07 02:34 58.90754 3.11968 36083 ft 402 kts 321°
2026-05-07 02:35 58.95308 3.05672 36085 ft 402 kts 321°
2026-05-07 02:35 58.99863 2.99390 36104 ft 402 kts 321°
2026-05-07 02:36 59.04415 2.93064 36080 ft 402 kts 320°
2026-05-07 02:36 59.08934 2.86754 36077 ft 402 kts 320°
2026-05-07 02:37 59.13479 2.80406 36072 ft 402 kts 320°
2026-05-07 02:37 59.18026 2.74053 36071 ft 402 kts 320°
2026-05-07 02:38 59.22567 2.67681 36071 ft 402 kts 320°
2026-05-07 02:38 59.27101 2.61281 36071 ft 402 kts 320°
2026-05-07 02:39 59.31625 2.54866 36096 ft 402 kts 320°
2026-05-07 02:39 59.36166 2.48421 36074 ft 402 kts 320°
2026-05-07 02:40 59.40687 2.41974 36072 ft 401 kts 320°
2026-05-07 02:40 59.45206 2.35519 36072 ft 401 kts 320°
2026-05-07 02:41 59.49715 2.29033 36074 ft 401 kts 320°
2026-05-07 02:41 59.54189 2.22584 36068 ft 401 kts 320°
2026-05-07 02:42 59.58690 2.16088 36110 ft 401 kts 319°
2026-05-07 02:42 59.63204 2.09533 36081 ft 403 kts 319°
2026-05-07 02:43 59.67719 2.02938 36070 ft 403 kts 319°
2026-05-07 02:43 59.72232 1.96348 36066 ft 403 kts 319°
2026-05-07 02:44 59.76734 1.89754 36068 ft 401 kts 319°
2026-05-07 02:44 59.81227 1.83159 36064 ft 401 kts 319°
2026-05-07 02:45 59.85712 1.76552 36062 ft 401 kts 319°
2026-05-07 02:45 59.90198 1.69917 36086 ft 403 kts 319°
2026-05-07 02:46 59.94701 1.63222 36063 ft 404 kts 319°
2026-05-07 02:46 59.99170 1.56545 36057 ft 404 kts 319°
2026-05-07 02:47 60.03667 1.49812 36056 ft 403 kts 319°
2026-05-07 02:47 60.08157 1.43071 36056 ft 403 kts 319°
2026-05-07 02:48 60.12647 1.36330 36053 ft 403 kts 319°
2026-05-07 02:48 60.17123 1.29581 36092 ft 401 kts 319°
2026-05-07 02:49 60.21593 1.22788 36060 ft 404 kts 318°
2026-05-07 02:49 60.26075 1.15971 36055 ft 404 kts 318°
2026-05-07 02:50 60.30556 1.09135 36052 ft 404 kts 318°
2026-05-07 02:50 60.35026 1.02282 36045 ft 404 kts 318°
2026-05-07 02:51 60.39512 0.95433 36045 ft 404 kts 318°
2026-05-07 02:51 60.43952 0.88602 36045 ft 403 kts 318°
2026-05-07 02:52 60.48421 0.81695 36070 ft 406 kts 318°
2026-05-07 02:52 60.52915 0.74694 36044 ft 407 kts 317°
2026-05-07 02:53 60.57413 0.67678 36042 ft 407 kts 317°
2026-05-07 02:53 60.61904 0.60656 36046 ft 406 kts 317°
2026-05-07 02:54 60.66376 0.53616 36040 ft 406 kts 317°
2026-05-07 02:54 60.70843 0.46557 36035 ft 406 kts 317°
2026-05-07 02:55 60.75275 0.39521 36065 ft 406 kts 317°
2026-05-07 02:55 60.79761 0.32386 36045 ft 410 kts 317°
2026-05-07 02:56 60.84268 0.25212 36035 ft 410 kts 317°
2026-05-07 02:56 60.88769 0.18017 36036 ft 410 kts 317°
2026-05-07 02:57 60.93263 0.10800 36036 ft 410 kts 317°
2026-05-07 02:57 60.97754 0.03550 36035 ft 409 kts 315°
2026-05-07 02:58 61.01374 -0.05214 36028 ft 399 kts 296°
2026-05-07 02:58 61.03897 -0.15411 36034 ft 399 kts 294°
2026-05-07 02:59 61.06414 -0.25682 36050 ft 404 kts 294°
2026-05-07 02:59 61.08984 -0.36032 36034 ft 405 kts 294°
2026-05-07 03:00 61.11529 -0.46345 36035 ft 404 kts 294°
2026-05-07 03:00 61.14084 -0.56714 36030 ft 404 kts 294°
2026-05-07 03:01 61.16627 -0.67105 36027 ft 404 kts 294°
2026-05-07 03:01 61.19160 -0.77520 36029 ft 404 kts 294°
2026-05-07 03:02 61.21689 -0.87953 36025 ft 404 kts 294°
2026-05-07 03:02 61.24213 -0.98378 36020 ft 404 kts 294°
2026-05-07 03:03 61.26719 -1.08834 36020 ft 404 kts 294°
2026-05-07 03:03 61.29222 -1.19307 36019 ft 404 kts 294°
2026-05-07 03:04 61.31701 -1.29724 36019 ft 404 kts 294°
2026-05-07 03:04 61.34185 -1.40220 36037 ft 406 kts 294°
2026-05-07 03:05 61.36710 -1.50949 36034 ft 416 kts 294°
2026-05-07 03:05 61.39274 -1.61885 36033 ft 423 kts 293°
2026-05-07 03:06 61.41859 -1.72971 36019 ft 425 kts 293°
2026-05-07 03:06 61.44420 -1.84005 36022 ft 425 kts 293°
2026-05-07 03:07 61.46990 -1.95132 36018 ft 425 kts 293°
2026-05-07 03:07 61.49551 -2.06287 36020 ft 425 kts 293°
2026-05-07 03:08 61.51667 -2.15563 36019 ft 425 kts 293°
2026-05-07 03:08 61.54212 -2.26766 36019 ft 426 kts 293°
2026-05-07 03:09 61.56753 -2.37991 36008 ft 426 kts 293°
2026-05-07 03:09 61.59284 -2.49225 36006 ft 426 kts 293°
2026-05-07 03:10 61.61798 -2.60478 36014 ft 425 kts 292°
2026-05-07 03:10 61.64306 -2.71744 36010 ft 426 kts 292°
2026-05-07 03:11 61.66808 -2.83039 36005 ft 425 kts 292°
2026-05-07 03:11 61.69285 -2.94273 36009 ft 426 kts 292°
2026-05-07 03:12 61.71771 -3.05613 36003 ft 426 kts 292°
2026-05-07 03:12 61.74241 -3.16981 36005 ft 426 kts 292°
2026-05-07 03:13 61.76711 -3.28355 35997 ft 426 kts 292°
2026-05-07 03:13 61.79163 -3.39742 36005 ft 426 kts 292°
2026-05-07 03:14 61.81608 -3.51129 35983 ft 425 kts 292°
2026-05-07 03:15 61.85244 -3.68210 35992 ft 426 kts 292°
2026-05-07 03:15 61.87660 -3.79664 36018 ft 428 kts 291°
2026-05-07 03:16 61.90093 -3.91244 35996 ft 430 kts 291°
2026-05-07 03:16 61.92521 -4.02851 35989 ft 430 kts 291°
2026-05-07 03:17 61.94937 -4.14475 35986 ft 430 kts 291°
2026-05-07 03:17 61.97342 -4.26108 35987 ft 430 kts 291°
2026-05-07 03:18 61.99739 -4.37765 35986 ft 430 kts 291°
2026-05-07 03:18 62.02132 -4.49469 35988 ft 431 kts 291°
2026-05-07 03:19 62.04511 -4.61175 35982 ft 431 kts 291°
2026-05-07 03:19 62.06866 -4.72837 35983 ft 431 kts 291°
2026-05-07 03:20 62.09229 -4.84587 35987 ft 431 kts 291°
2026-05-07 03:20 62.11580 -4.96346 35982 ft 430 kts 291°
2026-05-07 03:21 62.13918 -5.08122 36007 ft 432 kts 291°
2026-05-07 03:21 62.16267 -5.20019 35987 ft 435 kts 290°
2026-05-07 03:22 62.18616 -5.31978 35988 ft 435 kts 290°
2026-05-07 03:22 62.20953 -5.43946 35987 ft 435 kts 290°
2026-05-07 03:23 62.23279 -5.55936 35977 ft 435 kts 290°
2026-05-07 03:23 62.25594 -5.67937 35976 ft 435 kts 290°
2026-05-07 03:24 62.27899 -5.79951 35975 ft 435 kts 290°
2026-05-07 03:24 62.30176 -5.91912 35981 ft 436 kts 290°
2026-05-07 03:25 62.32460 -6.03977 35979 ft 436 kts 290°
2026-05-07 03:25 62.34736 -6.16074 35974 ft 436 kts 290°
2026-05-07 03:26 62.37001 -6.28191 35975 ft 436 kts 290°
2026-05-07 03:26 62.39254 -6.40339 36000 ft 438 kts 290°
2026-05-07 03:27 62.41513 -6.52550 35974 ft 438 kts 290°
2026-05-07 03:27 62.43762 -6.64778 35974 ft 439 kts 289°
2026-05-07 03:28 62.46005 -6.77065 35963 ft 439 kts 289°
2026-05-07 03:28 62.48230 -6.89355 35974 ft 439 kts 289°
2026-05-07 03:29 62.50442 -7.01613 35975 ft 439 kts 289°
2026-05-07 03:29 62.52651 -7.13938 35964 ft 439 kts 289°
2026-05-07 03:30 62.54846 -7.26296 35968 ft 439 kts 289°
2026-05-07 03:30 62.57032 -7.38657 35966 ft 439 kts 289°
2026-05-07 03:31 62.59209 -7.51075 35974 ft 440 kts 289°
2026-05-07 03:31 62.61375 -7.63519 35975 ft 441 kts 289°
2026-05-07 03:32 62.63535 -7.75988 35976 ft 442 kts 289°
2026-05-07 03:32 62.65696 -7.88534 35972 ft 443 kts 289°
2026-05-07 03:33 62.67848 -8.01095 35986 ft 442 kts 289°
2026-05-07 03:33 62.69976 -8.13598 35983 ft 442 kts 288°
2026-05-07 03:34 62.72100 -8.26167 35977 ft 442 kts 288°
2026-05-07 03:34 62.74213 -8.38765 35974 ft 442 kts 288°
2026-05-07 03:35 62.76319 -8.51382 35985 ft 442 kts 288°
2026-05-07 03:35 62.78410 -8.64028 35986 ft 442 kts 288°
2026-05-07 03:36 62.80486 -8.76663 35984 ft 442 kts 288°
2026-05-07 03:36 62.82550 -8.89338 35986 ft 442 kts 288°
2026-05-07 03:37 62.84605 -9.02017 36010 ft 442 kts 288°
2026-05-07 03:37 62.86656 -9.14763 35997 ft 443 kts 288°
2026-05-07 03:38 62.88687 -9.27479 35995 ft 446 kts 288°
2026-05-07 03:38 62.90717 -9.40295 35992 ft 443 kts 287°
2026-05-07 03:39 62.92734 -9.53091 35993 ft 443 kts 287°
2026-05-07 03:39 62.94735 -9.65894 35996 ft 443 kts 287°
2026-05-07 03:40 62.96726 -9.78719 35990 ft 443 kts 287°
2026-05-07 03:40 62.98705 -9.91574 35996 ft 446 kts 287°
2026-05-07 03:41 63.00679 -10.04518 35995 ft 443 kts 286°
2026-05-07 03:41 63.02569 -10.17425 36003 ft 444 kts 286°
2026-05-07 03:42 63.04442 -10.30271 36003 ft 440 kts 286°
2026-05-07 03:42 63.06314 -10.43184 36015 ft 443 kts 286°
2026-05-07 03:43 63.08186 -10.56184 36010 ft 446 kts 286°
2026-05-07 03:43 63.10051 -10.69254 36013 ft 443 kts 286°
2026-05-07 03:44 63.11897 -10.82276 36015 ft 444 kts 285°
2026-05-07 03:44 63.13715 -10.95213 36011 ft 441 kts 286°
2026-05-07 03:45 63.15534 -11.08243 36016 ft 443 kts 285°
2026-05-07 03:45 63.17346 -11.21324 36018 ft 449 kts 285°
2026-05-07 03:46 63.19146 -11.34443 36028 ft 444 kts 285°
2026-05-07 03:46 63.20930 -11.47521 36025 ft 442 kts 285°
2026-05-07 03:47 63.22703 -11.60637 36033 ft 446 kts 285°
2026-05-07 03:47 63.24467 -11.73808 36033 ft 448 kts 285°
2026-05-07 03:48 63.26238 -11.87124 36053 ft 447 kts 285°
2026-05-07 03:48 63.27990 -12.00386 36051 ft 447 kts 285°
2026-05-07 03:49 63.29713 -12.13558 36047 ft 444 kts 285°
2026-05-07 03:49 63.31431 -12.26821 36042 ft 446 kts 285°
2026-05-07 03:50 63.33138 -12.40079 36058 ft 451 kts 285°
2026-05-07 03:50 63.34848 -12.53477 36060 ft 450 kts 285°
2026-05-07 03:51 63.36534 -12.66827 36064 ft 444 kts 285°
2026-05-07 03:51 63.38210 -12.80186 36067 ft 448 kts 285°
2026-05-07 03:52 63.39882 -12.93636 36068 ft 453 kts 285°
2026-05-07 03:52 63.41547 -13.07129 36076 ft 450 kts 285°
2026-05-07 03:53 63.42915 -13.18348 36077 ft 449 kts 285°
2026-05-07 03:53 63.44552 -13.31834 36082 ft 451 kts 285°
2026-05-07 03:54 63.46179 -13.45370 36081 ft 453 kts 285°
2026-05-07 03:54 63.47793 -13.58911 36094 ft 450 kts 285°
2026-05-07 03:55 63.49390 -13.72466 36102 ft 448 kts 285°
2026-05-07 03:55 63.50964 -13.85962 36099 ft 451 kts 284°
2026-05-07 03:56 63.52547 -13.99585 36101 ft 453 kts 285°
2026-05-07 03:56 63.54115 -14.13258 36117 ft 451 kts 284°
2026-05-07 03:57 63.55668 -14.26924 36117 ft 450 kts 285°
2026-05-07 03:57 63.57202 -14.40523 36117 ft 453 kts 284°
2026-05-07 03:58 63.58737 -14.54260 36118 ft 455 kts 284°
2026-05-07 03:58 63.60256 -14.68016 36121 ft 452 kts 284°
2026-05-07 03:59 63.61747 -14.81650 36127 ft 450 kts 285°
2026-05-07 03:59 63.63231 -14.95361 36130 ft 452 kts 284°
2026-05-07 04:00 63.64716 -15.09191 36136 ft 457 kts 284°
2026-05-07 04:00 63.66183 -15.23017 36135 ft 454 kts 284°
2026-05-07 04:01 63.67627 -15.36766 36144 ft 450 kts 284°
2026-05-07 04:01 63.69063 -15.50545 36144 ft 453 kts 284°
2026-05-07 04:02 63.70497 -15.64450 36147 ft 454 kts 284°
2026-05-07 04:02 63.71912 -15.78329 36140 ft 454 kts 284°
2026-05-07 04:03 63.73309 -15.92179 36149 ft 455 kts 283°
2026-05-07 04:03 63.74702 -16.06124 36151 ft 457 kts 283°
2026-05-07 04:04 63.76075 -16.20027 36150 ft 455 kts 283°
2026-05-07 04:04 63.77435 -16.33985 36151 ft 454 kts 283°
2026-05-07 04:05 63.78789 -16.47958 36151 ft 455 kts 283°
2026-05-07 04:05 63.80126 -16.62016 36161 ft 456 kts 282°
2026-05-07 04:06 63.80949 -16.76222 36158 ft 454 kts 278°
2026-05-07 04:06 63.81659 -16.90445 36157 ft 456 kts 277°
2026-05-07 04:07 63.82362 -17.04734 36148 ft 456 kts 277°
2026-05-07 04:07 63.83046 -17.18889 36149 ft 454 kts 277°
2026-05-07 04:08 63.83722 -17.33187 36152 ft 458 kts 277°
2026-05-07 04:08 63.84386 -17.47527 36152 ft 457 kts 277°
2026-05-07 04:09 63.85037 -17.61862 36152 ft 457 kts 276°
2026-05-07 04:09 63.85674 -17.76238 36156 ft 458 kts 276°
2026-05-07 04:10 63.86295 -17.90597 36155 ft 455 kts 276°
2026-05-07 04:10 63.86895 -18.04770 36163 ft 454 kts 277°
2026-05-07 04:11 63.87490 -18.19120 36172 ft 459 kts 276°
2026-05-07 04:11 63.88072 -18.33556 36164 ft 459 kts 276°
2026-05-07 04:11 63.88355 -18.40721 35819 ft 451 kts 276°
2026-05-07 04:12 63.88627 -18.47747 35305 ft 445 kts 276°
2026-05-07 04:12 63.88893 -18.54700 34737 ft 440 kts 276°
2026-05-07 04:12 63.89155 -18.61587 34166 ft 436 kts 276°
2026-05-07 04:12 63.89411 -18.68413 33504 ft 431 kts 276°
2026-05-07 04:13 63.89657 -18.75070 32934 ft 426 kts 277°
2026-05-07 04:13 63.89902 -18.81727 32373 ft 420 kts 277°
2026-05-07 04:13 63.90140 -18.88291 31799 ft 415 kts 277°
2026-05-07 04:13 63.90372 -18.94784 31245 ft 410 kts 277°
2026-05-07 04:14 63.90597 -19.01196 30726 ft 404 kts 277°
2026-05-07 04:14 63.90815 -19.07509 30173 ft 400 kts 277°
2026-05-07 04:14 63.91031 -19.13780 29550 ft 395 kts 277°
2026-05-07 04:14 63.91241 -19.19955 29001 ft 389 kts 277°
2026-05-07 04:15 63.91445 -19.26015 28485 ft 382 kts 277°
2026-05-07 04:15 63.91644 -19.32000 28002 ft 376 kts 277°
2026-05-07 04:15 63.91837 -19.37887 27512 ft 371 kts 277°
2026-05-07 04:15 63.92025 -19.43720 26986 ft 369 kts 277°
2026-05-07 04:16 63.92210 -19.49528 26490 ft 367 kts 277°
2026-05-07 04:16 63.92389 -19.55281 26018 ft 364 kts 277°
2026-05-07 04:16 63.92565 -19.61016 25540 ft 362 kts 277°
2026-05-07 04:16 63.92737 -19.66694 25077 ft 359 kts 277°
2026-05-07 04:17 63.92908 -19.72343 24600 ft 358 kts 277°
2026-05-07 04:17 63.93076 -19.77985 24101 ft 357 kts 277°
2026-05-07 04:17 63.93242 -19.83601 23589 ft 356 kts 277°
2026-05-07 04:17 63.93405 -19.89196 23052 ft 353 kts 277°
2026-05-07 04:18 63.93565 -19.94743 22557 ft 349 kts 278°
2026-05-07 04:18 63.93721 -20.00225 22069 ft 347 kts 278°
2026-05-07 04:18 63.93873 -20.05675 21579 ft 345 kts 278°
2026-05-07 04:18 63.94022 -20.11098 21094 ft 342 kts 277°
2026-05-07 04:19 63.94169 -20.16475 20634 ft 340 kts 277°
2026-05-07 04:19 63.94314 -20.21837 20176 ft 338 kts 277°
2026-05-07 04:19 63.94455 -20.27141 19746 ft 336 kts 277°
2026-05-07 04:19 63.94592 -20.32429 19325 ft 334 kts 277°
2026-05-07 04:20 63.94485 -20.37703 18910 ft 336 kts 266°
2026-05-07 04:20 63.94118 -20.42957 18497 ft 335 kts 264°
2026-05-07 04:20 63.93722 -20.48170 18037 ft 334 kts 264°
2026-05-07 04:21 63.92944 -20.58549 17215 ft 331 kts 264°
2026-05-07 04:21 63.92567 -20.63635 16825 ft 330 kts 264°
2026-05-07 04:21 63.92186 -20.68764 16441 ft 329 kts 264°
2026-05-07 04:21 63.91805 -20.73892 16034 ft 328 kts 264°
2026-05-07 04:22 63.91427 -20.78998 15678 ft 327 kts 264°
2026-05-07 04:22 63.91047 -20.84091 15332 ft 326 kts 264°
2026-05-07 04:22 63.90665 -20.89165 14974 ft 326 kts 264°
2026-05-07 04:22 63.90280 -20.94253 14585 ft 327 kts 264°
2026-05-07 04:23 63.89893 -20.99369 14187 ft 328 kts 264°
2026-05-07 04:23 63.89502 -21.04482 13782 ft 329 kts 263°
2026-05-07 04:23 63.89111 -21.09579 13382 ft 325 kts 263°
2026-05-07 04:23 63.88723 -21.14584 13002 ft 318 kts 263°
2026-05-07 04:24 63.88344 -21.19460 12636 ft 310 kts 263°
2026-05-07 04:24 63.87971 -21.24242 12252 ft 306 kts 263°
2026-05-07 04:24 63.87599 -21.29003 11866 ft 307 kts 263°
2026-05-07 04:24 63.87225 -21.33767 11497 ft 307 kts 263°
2026-05-07 04:25 63.86848 -21.38532 11138 ft 307 kts 262°
2026-05-07 04:25 63.86471 -21.43287 10773 ft 307 kts 263°
2026-05-07 04:25 63.86092 -21.48054 10426 ft 305 kts 263°
2026-05-07 04:25 63.85718 -21.52702 10155 ft 295 kts 262°
2026-05-07 04:26 63.85357 -21.57196 9799 ft 291 kts 262°
2026-05-07 04:26 63.84994 -21.61702 9423 ft 291 kts 262°
2026-05-07 04:26 63.84627 -21.66218 9044 ft 291 kts 262°
2026-05-07 04:26 63.84261 -21.70721 8704 ft 289 kts 262°
2026-05-07 04:27 63.83898 -21.75156 8365 ft 285 kts 263°
2026-05-07 04:27 63.83536 -21.79564 8024 ft 284 kts 262°
2026-05-07 04:27 63.83174 -21.83954 7692 ft 283 kts 262°
2026-05-07 04:27 63.82812 -21.88328 7340 ft 280 kts 262°
2026-05-07 04:28 63.82454 -21.92644 6916 ft 278 kts 262°
2026-05-07 04:28 63.82095 -21.96938 6524 ft 275 kts 262°
2026-05-07 04:28 63.81741 -22.01162 6142 ft 272 kts 263°
2026-05-07 04:28 63.81387 -22.05373 5788 ft 271 kts 263°
2026-05-07 04:29 63.81017 -22.09557 5459 ft 270 kts 259°
2026-05-07 04:29 63.80467 -22.13624 5145 ft 270 kts 254°
2026-05-07 04:29 63.79863 -22.17596 4833 ft 264 kts 254°
2026-05-07 04:29 63.79269 -22.21499 4517 ft 262 kts 254°
2026-05-07 04:30 63.78679 -22.25377 4204 ft 259 kts 254°
2026-05-07 04:30 63.78101 -22.29173 3893 ft 257 kts 255°
2026-05-07 04:30 63.77531 -22.32914 3687 ft 246 kts 254°
2026-05-07 04:30 63.77021 -22.36538 3488 ft 239 kts 262°
2026-05-07 04:31 63.77039 -22.40215 3434 ft 234 kts 287°
2026-05-07 04:31 63.77571 -22.43683 3448 ft 233 kts 294°
2026-05-07 04:31 63.78165 -22.47095 3451 ft 233 kts 294°
2026-05-07 04:31 63.78726 -22.50422 3465 ft 217 kts 293°
2026-05-07 04:32 63.79247 -22.53568 3521 ft 213 kts 294°
2026-05-07 04:32 63.79762 -22.56659 3329 ft 207 kts 295°
2026-05-07 04:32 63.80571 -22.59263 2914 ft 198 kts 322°
2026-05-07 04:32 63.81752 -22.60423 2728 ft 177 kts 353°
2026-05-07 04:33 63.82910 -22.60549 2592 ft 157 kts
2026-05-07 04:33 63.83905 -22.60536 2457 ft 127 kts
2026-05-07 04:33 63.84742 -22.60530 2432 ft 119 kts
2026-05-07 04:33 63.85555 -22.60529 2425 ft 115 kts
2026-05-07 04:34 63.86350 -22.60529 2295 ft 115 kts
2026-05-07 04:34 63.87140 -22.60529 2145 ft 112 kts
2026-05-07 04:34 63.87922 -22.60529 1982 ft 113 kts
2026-05-07 04:34 63.88696 -22.60529 1819 ft 113 kts
2026-05-07 04:35 63.89486 -22.60530 1650 ft 113 kts
2026-05-07 04:35 63.90269 -22.60529 1486 ft 112 kts
2026-05-07 04:35 63.91045 -22.60532 1333 ft 111 kts
2026-05-07 04:35 63.91815 -22.60541 1147 ft 111 kts
2026-05-07 04:36 63.92586 -22.60526 968 ft 110 kts
2026-05-07 04:36 63.93363 -22.60541 805 ft 113 kts
2026-05-07 04:36 63.94143 -22.60556 682 ft 111 kts
2026-05-07 04:36 63.94916 -22.60557 526 ft 110 kts
2026-05-07 04:37 63.95683 -22.60550 360 ft 111 kts
2026-05-07 04:37 63.96466 -22.60554 204 ft 113 kts
2026-05-07 04:37 63.97194 -22.60548 171 ft 86 kts
2026-05-07 04:37 63.97612 -22.60543 179 ft 45 kts
2026-05-07 04:38 63.97879 -22.60540 176 ft 35 kts 360°
2026-05-07 04:38 63.98087 -22.60604 177 ft 29 kts 341°
2026-05-07 04:38 63.98255 -22.60794 172 ft 25 kts 329°
2026-05-07 04:38 63.98330 -22.60894 172 ft 16 kts 329°
2026-05-07 04:39 63.98445 -22.60941 180 ft 19 kts
2026-05-07 04:39 63.98595 -22.60939 174 ft 23 kts
2026-05-07 04:39 63.98741 -22.60940 172 ft 17 kts 359°
2026-05-07 04:39 63.98841 -22.60967 173 ft 13 kts 317°
2026-05-07 04:40 63.98884 -22.61118 169 ft 12 kts 343°
2026-05-07 04:40 63.98985 -22.61126 169 ft 18 kts
2026-05-07 04:40 63.99094 -22.61123 168 ft 14 kts
2026-05-07 04:40 63.99161 -22.61148 166 ft 8 kts 314°
2026-05-07 04:41 63.99174 -22.61289 162 ft 10 kts 269°
2026-05-07 04:41 63.99173 -22.61494 158 ft 16 kts 269°
2026-05-07 04:41 63.99172 -22.61757 152 ft 17 kts 270°
2026-05-07 04:41 63.99182 -22.61968 148 ft 9 kts 328°
2026-05-07 04:42 63.99231 -22.61995 147 ft 7 kts 306°
2026-05-07 04:42 63.99243 -22.62103 148 ft 5 kts 298°
2026-05-07 04:42 63.99271 -22.62169 148 ft 5 kts 315°
2026-05-07 04:42 63.99280 -22.62190 148 ft 0 kts 315°